Location: *
(45.5667°S, 177.5167°W)
Time: 17:16:00
(UTC+00:00)

Cosmos 1891 Rocket - Pass Details

Date: 29 May 2022
Orbit: 933 x 1019 km, 82.9° (Epoch: 06 July)

Event Time Altitude Azimuth Distance (km) Brightness Sun altitude
Rises 06:58:05 0° 188° (S) 3,748 7.6 -27.4°
Reaches altitude 10° 07:00:38 10° 186° (S) 2,804 6.9 -27.9°
Enters shadow 07:06:47 76° 134° (SE) 1,055 4.4 -28.9°
